GW2039 Weather Reports


Display with metric or nautical units.
time (UTC)temp
F
wind
direction
speed
MPH
gust
MPH
rain 1hr
in
rain 24hr
in
rain mn
in
humidity
%
barometer
mb
20260504234702 66 26 1.0 4.0 0.00 0.00 0.00 80 1011.5
20260504234603 66 34 1.0 4.0 0.00 0.00 0.00 80 1011.4
20260504234504 66 25 1.0 4.0 0.00 0.00 0.00 80 1011.4
20260504234404 66 17 0.0 4.0 0.00 0.00 0.00 80 1011.4
20260504234102 66 349 2.0 4.0 0.00 0.00 0.00 79 1011.4
20260504233902 66 39 1.0 4.0 0.00 0.00 0.00 79 1011.3
20260504233803 66 46 2.0 4.0 0.00 0.00 0.00 79 1011.1
20260504233700 66 349 2.0 4.0 0.00 0.00 0.00 79 1011.2
20260504233602 66 355 1.0 3.0 0.00 0.00 0.00 79 1011.2
20260504233503 66 342 1.0 3.0 0.00 0.00 0.00 79 1011.2
20260504233202 66 5 2.0 3.0 0.00 0.00 0.00 78 1011.1
20260504233100 67 24 1.0 3.0 0.00 0.00 0.00 78 1011.1
20260504233005 67 24 0.0 2.0 0.00 0.00 0.00 78 1011.1
20260504232902 67 27 0.0 2.0 0.00 0.00 0.00 78 1011.0
20260504232702 67 9 0.0 2.0 0.00 0.00 0.00 77 1011.0
20260504232602 67 9 0.0 2.0 0.00 0.00 0.00 77 1011.0
20260504232358 67 346 0.0 2.0 0.00 0.00 0.00 77 1010.9
20260504232201 67 334 0.0 2.0 0.00 0.00 0.00 77 1010.8
20260504232104 67 317 0.0 2.0 0.00 0.00 0.00 77 1010.8
20260504232005 67 340 0.0 0.0 0.00 0.00 0.00 77 1010.8
20260504231859 67 340 0.0 0.0 0.00 0.00 0.00 77 1010.7
20260504231700 67 340 0.0 1.0 0.00 0.00 0.00 77 1010.7
20260504231503 67 340 0.0 1.0 0.00 0.00 0.00 77 1010.6
20260504231401 67 340 0.0 1.0 0.00 0.00 0.00 77 1010.6
20260504231202 68 340 0.0 2.0 0.00 0.00 0.00 77 1010.5
20260504231108 68 340 0.0 2.0 0.00 0.00 0.00 77 1010.5
20260504231009 68 340 0.0 3.0 0.00 0.00 0.00 76 1010.5
20260504230803 68 325 0.0 3.0 0.00 0.00 0.00 76 1010.5
20260504230708 68 301 0.0 3.0 0.00 0.00 0.00 76 1010.5
20260504230604 68 301 1.0 3.0 0.00 0.00 0.00 76 1010.5
20260504230508 68 301 1.0 3.0 0.00 0.00 0.00 76 1010.4
20260504230405 68 301 1.0 3.0 0.00 0.00 0.00 76 1010.4
20260504230301 68 279 2.0 3.0 0.00 0.00 0.00 76 1010.4
20260504230200 68 287 1.0 3.0 0.00 0.00 0.00 76 1010.4
20260504230108 68 286 1.0 2.0 0.00 0.00 0.00 76 1010.5
20260504230007 68 286 0.0 1.0 0.00 0.00 0.00 76 1010.4
20260504225859 68 286 0.0 1.0 0.00 0.00 0.00 76 1010.4
20260504225803 68 286 0.0 1.0 0.00 0.00 0.00 76 1010.5
20260504225700 68 222 0.0 1.0 0.00 0.00 0.00 76 1010.3
20260504225605 68 167 0.0 1.0 0.00 0.00 0.00 76 1010.4
20260504225514 68 167 0.0 1.0 0.00 0.00 0.00 76 1010.3
20260504225403 68 167 0.0 1.0 0.00 0.00 0.00 76 1010.3
20260504225304 68 167 0.0 1.0 0.00 0.00 0.00 76 1010.2
20260504225203 68 146 0.0 0.0 0.00 0.00 0.00 76 1010.4
20260504225101 68 146 0.0 1.0 0.00 0.00 0.00 76 1010.4
20260504225014 68 146 0.0 2.0 0.00 0.00 0.00 76 1010.4
20260504224810 68 146 0.0 3.0 0.00 0.00 0.00 76 1010.4
20260504224603 68 146 0.0 3.0 0.00 0.00 0.00 76 1010.2
20260504224516 68 146 0.0 5.0 0.00 0.00 0.00 76 1010.4
20260504224403 68 146 1.0 5.0 0.00 0.00 0.00 76 1010.3
20260504224303 68 142 1.0 7.0 0.00 0.00 0.00 76 1010.4
20260504224200 68 111 2.0 7.0 0.00 0.00 0.00 76 1010.3
20260504224105 68 142 1.0 7.0 0.00 0.00 0.00 76 1010.4
20260504224022 68 98 1.0 7.0 0.00 0.00 0.00 76 1010.3
20260504223902 68 129 1.0 7.0 0.00 0.00 0.00 76 1010.3
20260504223559 68 102 3.0 7.0 0.00 0.00 0.00 75 1010.3
20260504223400 68 103 3.0 7.0 0.00 0.00 0.00 75 1010.3
20260504223303 68 65 3.0 7.0 0.00 0.00 0.00 75 1010.3
20260504223204 68 90 3.0 7.0 0.00 0.00 0.00 75 1010.3
20260504223004 69 111 3.0 7.0 0.00 0.00 0.00 75 1010.2
20260504222804 69 86 1.0 6.0 0.00 0.00 0.00 74 1010.2
20260504222703 69 85 1.0 6.0 0.00 0.00 0.00 74 1010.2
20260504222601 69 53 2.0 6.0 0.00 0.00 0.00 74 1010.2
20260504222512 69 97 3.0 6.0 0.00 0.00 0.00 74 1010.3
20260504222409 69 78 3.0 6.0 0.00 0.00 0.00 74 1010.2
20260504222304 69 84 3.0 6.0 0.00 0.00 0.00 74 1010.2
20260504222202 69 98 2.0 4.0 0.00 0.00 0.00 74 1010.2
20260504221903 69 101 2.0 4.0 0.00 0.00 0.00 74 1010.1
20260504221801 69 144 2.0 3.0 0.00 0.00 0.00 75 1010.2
20260504221603 69 74 1.0 3.0 0.00 0.00 0.00 75 1010.2
20260504221510 69 55 1.0 3.0 0.00 0.00 0.00 75 1010.2
20260504221403 69 80 1.0 3.0 0.00 0.00 0.00 75 1010.1
20260504221304 69 97 2.0 3.0 0.00 0.00 0.00 75 1010.1
20260504221205 69 98 2.0 3.0 0.00 0.00 0.00 75 1010.2
20260504220904 69 103 0.0 3.0 0.00 0.00 0.00 75 1010.2
20260504220807 69 135 0.0 3.0 0.00 0.00 0.00 75 1010.2
20260504220559 69 155 1.0 3.0 0.00 0.00 0.00 75 1010.2
20260504220508 69 166 1.0 3.0 0.00 0.00 0.00 74 1010.2
20260504220405 69 179 1.0 2.0 0.00 0.00 0.00 74 1010.3
20260504220301 69 179 0.0 0.0 0.00 0.00 0.00 74 1010.2
20260504220201 69 179 0.0 0.0 0.00 0.00 0.00 74 1010.2
20260504220011 69 179 0.0 0.0 0.00 0.00 0.00 74 1010.1
20260504215612 69 179 0.0 0.0 0.00 0.00 0.00 74 1010.1
20260504215506 69 179 0.0 1.0 0.00 0.00 0.00 74 1010.2
20260504215259 69 179 0.0 1.0 0.00 0.00 0.00 74 1010.1
20260504215202 69 179 0.0 1.0 0.00 0.00 0.00 74 1010.1
20260504215105 69 179 0.0 1.0 0.00 0.00 0.00 74 1010.1
20260504215018 69 179 0.0 1.0 0.00 0.00 0.00 74 1010.2
20260504214802 69 236 0.0 1.0 0.00 0.00 0.00 73 1010.1
20260504214709 69 278 0.0 1.0 0.00 0.00 0.00 73 1010.2
20260504214612 69 278 0.0 0.0 0.00 0.00 0.00 73 1010.2
20260504214506 69 278 0.0 0.0 0.00 0.00 0.00 73 1010.1
20260504214401 69 278 0.0 0.0 0.00 0.00 0.00 73 1010.1
20260504214258 69 277 0.0 1.0 0.00 0.00 0.00 73 1010.1
20260504214208 70 278 0.0 1.0 0.00 0.00 0.00 73 1010.0
20260504214007 70 278 0.0 3.0 0.00 0.00 0.00 72 1010.0
20260504213904 70 278 0.0 3.0 0.00 0.00 0.00 72 1010.0
20260504213803 70 278 0.0 3.0 0.00 0.00 0.00 72 1010.0
20260504213706 70 251 0.0 3.0 0.00 0.00 0.00 72 1010.0
20260504213609 70 252 0.0 3.0 0.00 0.00 0.00 72 1010.1
20260504213518 70 251 0.0 3.0 0.00 0.00 0.00 72 1010.1
20260504213402 70 217 0.0 3.0 0.00 0.00 0.00 72 1010.0
20260504213304 70 217 0.0 3.0 0.00 0.00 0.00 72 1010.0
20260504213204 70 217 1.0 3.0 0.00 0.00 0.00 72 1010.1
20260504213007 70 222 2.0 3.0 0.00 0.00 0.00 71 1010.1
20260504212905 70 180 1.0 3.0 0.00 0.00 0.00 71 1010.2
20260504212803 70 194 0.0 0.0 0.00 0.00 0.00 71 1010.2
20260504212700 70 190 0.0 0.0 0.00 0.00 0.00 71 1010.2
20260504212606 70 182 0.0 0.0 0.00 0.00 0.00 70 1010.1
20260504212504 70 167 0.0 0.0 0.00 0.00 0.00 70 1010.2
20260504212359 70 162 0.0 0.0 0.00 0.00 0.00 70 1010.2
20260504212308 70 163 0.0 0.0 0.00 0.00 0.00 70 1010.2
20260504212201 70 178 0.0 0.0 0.00 0.00 0.00 70 1010.1
20260504212104 70 190 0.0 0.0 0.00 0.00 0.00 70 1010.2
20260504212013 70 175 0.0 0.0 0.00 0.00 0.00 70 1010.1
20260504211904 70 175 0.0 0.0 0.00 0.00 0.00 70 1010.1
20260504211758 70 175 0.0 0.0 0.00 0.00 0.00 70 1010.1
20260504211659 70 175 0.0 0.0 0.00 0.00 0.00 70 1010.1
20260504211601 70 175 0.0 0.0 0.00 0.00 0.00 70 1010.1
20260504211300 70 194 0.0 0.0 0.00 0.00 0.00 69 1010.1
20260504211200 70 188 0.0 0.0 0.00 0.00 0.00 69 1010.1
20260504211102 70 188 0.0 0.0 0.00 0.00 0.00 69 1010.0
20260504210905 70 169 0.0 0.0 0.00 0.00 0.00 69 1010.1
20260504210800 70 169 0.0 0.0 0.00 0.00 0.00 69 1010.1
20260504210700 70 169 0.0 0.0 0.00 0.00 0.00 69 1010.0
20260504210602 70 169 0.0 0.0 0.00 0.00 0.00 69 1010.0
20260504210305 70 170 0.0 0.0 0.00 0.00 0.00 69 1010.1
20260504210201 70 171 0.0 2.0 0.00 0.00 0.00 69 1010.1
20260504210014 70 168 0.0 2.0 0.00 0.00 0.00 69 1010.1
20260504205759 70 168 0.0 3.0 0.00 0.00 0.00 69 1010.1
20260504205704 70 168 0.0 3.0 0.00 0.00 0.00 69 1010.1
20260504205601 70 168 0.0 3.0 0.00 0.00 0.00 69 1010.0
20260504205508 70 168 0.0 3.0 0.00 0.00 0.00 69 1010.1
20260504205400 70 163 1.0 3.0 0.00 0.00 0.00 69 1010.0
20260504205304 70 167 1.0 3.0 0.00 0.00 0.00 69 1010.0
20260504205201 70 163 1.0 3.0 0.00 0.00 0.00 69 1010.0
20260504204904 70 157 0.0 2.0 0.00 0.00 0.00 69 1009.9
20260504204805 70 136 0.0 2.0 0.00 0.00 0.00 69 1009.9
20260504204704 70 117 1.0 2.0 0.00 0.00 0.00 69 1009.9
20260504204600 70 115 1.0 2.0 0.00 0.00 0.00 69 1009.9
20260504204503 70 101 0.0 2.0 0.00 0.00 0.00 69 1009.9
20260504204401 70 100 0.0 2.0 0.00 0.00 0.00 69 1010.0
20260504204304 70 107 0.0 3.0 0.00 0.00 0.00 69 1009.9
20260504204200 70 149 0.0 4.0 0.00 0.00 0.00 69 1010.0
20260504204103 70 148 0.0 4.0 0.00 0.00 0.00 69 1010.0
20260504204005 70 60 0.0 4.0 0.00 0.00 0.00 69 1010.0
20260504203900 70 60 0.0 5.0 0.00 0.00 0.00 69 1010.0
20260504203800 70 61 0.0 5.0 0.00 0.00 0.00 69 1010.0
20260504203702 70 78 1.0 5.0 0.00 0.00 0.00 69 1010.0
20260504203601 70 59 2.0 5.0 0.00 0.00 0.00 69 1010.0
20260504203503 70 75 2.0 5.0 0.00 0.00 0.00 69 1010.0
20260504203400 70 70 2.0 5.0 0.00 0.00 0.00 69 1010.0
20260504203301 70 49 2.0 5.0 0.00 0.00 0.00 69 1009.9
20260504203159 70 74 2.0 5.0 0.00 0.00 0.00 69 1009.9
20260504203104 70 335 2.0 5.0 0.00 0.00 0.00 69 1010.0
20260504203006 70 67 1.0 5.0 0.00 0.00 0.00 69 1009.9
20260504202904 70 73 1.0 5.0 0.00 0.00 0.00 69 1009.9
20260504202802 70 69 2.0 5.0 0.00 0.00 0.00 69 1009.8
20260504202701 70 82 3.0 5.0 0.00 0.00 0.00 69 1009.8
20260504202600 70 77 3.0 5.0 0.00 0.00 0.00 69 1009.8
20260504202402 70 63 1.0 4.0 0.00 0.00 0.00 69 1009.8
20260504202301 70 70 1.0 3.0 0.00 0.00 0.00 69 1009.8
20260504202201 70 67 1.0 3.0 0.00 0.00 0.00 69 1009.8
20260504202101 70 65 1.0 3.0 0.00 0.00 0.00 69 1009.8
20260504202007 70 63 0.0 3.0 0.00 0.00 0.00 69 1009.8
20260504201900 70 88 0.0 3.0 0.00 0.00 0.00 69 1009.8
20260504201801 70 59 1.0 3.0 0.00 0.00 0.00 68 1009.8
20260504201702 71 91 1.0 3.0 0.00 0.00 0.00 69 1009.8
20260504201600 71 53 0.0 3.0 0.00 0.00 0.00 69 1009.8
20260504201504 71 13 1.0 3.0 0.00 0.00 0.00 69 1009.8
20260504201301 71 43 0.0 1.0 0.00 0.00 0.00 69 1009.7
20260504201202 71 338 0.0 0.0 0.00 0.00 0.00 69 1009.7
20260504201101 71 338 0.0 0.0 0.00 0.00 0.00 69 1009.7
20260504201006 71 338 0.0 0.0 0.00 0.00 0.00 69 1009.7
20260504200901 71 338 0.0 0.0 0.00 0.00 0.00 69 1009.6
20260504200802 71 338 0.0 0.0 0.00 0.00 0.00 69 1009.7
20260504200701 71 338 0.0 0.0 0.00 0.00 0.00 68 1009.6
20260504200601 71 338 0.0 0.0 0.00 0.00 0.00 68 1009.6
20260504200505 71 338 0.0 1.0 0.00 0.00 0.00 68 1009.7
20260504200400 71 338 0.0 2.0 0.00 0.00 0.00 68 1009.6
20260504200300 71 338 0.0 2.0 0.00 0.00 0.00 68 1009.6
20260504200200 71 338 0.0 2.0 0.00 0.00 0.00 68 1009.6
20260504200100 71 338 0.0 2.0 0.00 0.00 0.00 68 1009.6
20260504200007 71 338 0.0 2.0 0.00 0.00 0.00 68 1009.6
20260504195903 71 338 0.0 2.0 0.00 0.00 0.00 68 1009.6
20260504195802 71 333 0.0 2.0 0.00 0.00 0.00 68 1009.6
20260504195702 71 333 1.0 2.0 0.00 0.00 0.00 68 1009.6
20260504195603 71 333 1.0 2.0 0.00 0.00 0.00 68 1009.6
20260504195505 71 325 0.0 2.0 0.00 0.00 0.00 68 1009.7
20260504195402 71 5 0.0 1.0 0.00 0.00 0.00 67 1009.7
20260504195304 71 5 0.0 1.0 0.00 0.00 0.00 67 1009.7
20260504195205 71 91 0.0 2.0 0.00 0.00 0.00 67 1009.6
20260504195102 71 128 0.0 2.0 0.00 0.00 0.00 67 1009.6
20260504195005 71 128 0.0 2.0 0.00 0.00 0.00 67 1009.6
20260504194902 71 128 0.0 2.0 0.00 0.00 0.00 67 1009.6
20260504194802 71 128 0.0 2.0 0.00 0.00 0.00 67 1009.7
20260504194604 71 128 0.0 2.0 0.00 0.00 0.00 67 1009.6
20260504194504 71 128 0.0 3.0 0.00 0.00 0.00 67 1009.6
20260504194302 71 127 0.0 3.0 0.00 0.00 0.00 67 1009.6
20260504194204 71 154 0.0 3.0 0.00 0.00 0.00 67 1009.6
20260504194104 71 134 1.0 3.0 0.00 0.00 0.00 67 1009.6
20260504194009 71 133 0.0 3.0 0.00 0.00 0.00 67 1009.6
20260504193902 71 150 1.0 3.0 0.00 0.00 0.00 67 1009.6
20260504193808 71 135 1.0 3.0 0.00 0.00 0.00 67 1009.5
20260504193703 71 144 2.0 3.0 0.00 0.00 0.00 68 1009.5
20260504193602 71 136 1.0 3.0 0.00 0.00 0.00 68 1009.6
20260504193104 71 136 0.0 2.0 0.00 0.00 0.00 67 1009.5
20260504193008 71 92 0.0 2.0 0.00 0.00 0.00 67 1009.5
20260504192902 71 126 1.0 2.0 0.00 0.00 0.00 67 1009.6
20260504192803 71 134 1.0 2.0 0.00 0.00 0.00 68 1009.5
20260504192702 71 144 0.0 1.0 0.00 0.00 0.00 68 1009.5
20260504192601 71 134 0.0 0.0 0.00 0.00 0.00 68 1009.5
20260504192506 71 134 0.0 0.0 0.00 0.00 0.00 68 1009.5
20260504192304 71 119 0.0 0.0 0.00 0.00 0.00 68 1009.4
20260504192202 71 119 0.0 0.0 0.00 0.00 0.00 68 1009.4
20260504192102 71 260 0.0 0.0 0.00 0.00 0.00 68 1009.4
20260504192007 71 260 0.0 0.0 0.00 0.00 0.00 68 1009.5
20260504191803 71 260 0.0 0.0 0.00 0.00 0.00 68 1009.4
20260504191703 71 260 0.0 0.0 0.00 0.00 0.00 68 1009.5
20260504191602 71 260 0.0 1.0 0.00 0.00 0.00 67 1009.5
20260504191504 71 260 0.0 1.0 0.00 0.00 0.00 67 1009.5
20260504191402 71 260 0.0 1.0 0.00 0.00 0.00 67 1009.5
20260504191303 71 260 0.0 1.0 0.00 0.00 0.00 67 1009.5
20260504191204 71 260 0.0 1.0 0.00 0.00 0.00 67 1009.5
20260504191102 71 260 0.0 1.0 0.00 0.00 0.00 67 1009.5
20260504190905 71 260 0.0 2.0 0.00 0.00 0.00 67 1009.6
20260504190803 71 260 0.0 2.0 0.00 0.00 0.00 67 1009.6
20260504190602 71 152 0.0 2.0 0.00 0.00 0.00 67 1009.6
20260504190504 71 152 0.0 2.0 0.00 0.00 0.00 67 1009.6
20260504190402 71 152 0.0 2.0 0.00 0.00 0.00 67 1009.6
20260504190304 71 152 0.0 2.0 0.00 0.00 0.00 67 1009.6
20260504190204 71 152 1.0 2.0 0.00 0.00 0.00 67 1009.6
20260504190106 71 147 1.0 2.0 0.00 0.00 0.00 67 1009.6
20260504185904 71 165 0.0 1.0 0.00 0.00 0.00 67 1009.6
20260504185702 71 98 0.0 1.0 0.00 0.00 0.00 66 1009.7
20260504185605 71 208 0.0 0.0 0.00 0.00 0.00 66 1009.7
20260504185507 71 208 0.0 0.0 0.00 0.00 0.00 66 1009.7
20260504185403 71 208 0.0 0.0 0.00 0.00 0.00 66 1009.7
20260504185304 71 208 0.0 0.0 0.00 0.00 0.00 66 1009.7
20260504185202 71 208 0.0 0.0 0.00 0.00 0.00 66 1009.7
20260504185007 71 208 0.0 0.0 0.00 0.00 0.00 66 1009.7
20260504184804 71 208 0.0 0.0 0.00 0.00 0.00 66 1009.8
20260504184704 71 208 0.0 0.0 0.00 0.00 0.00 66 1009.7
20260504184604 71 208 0.0 0.0 0.00 0.00 0.00 66 1009.7
20260504184506 71 208 0.0 0.0 0.00 0.00 0.00 66 1009.8
20260504184404 71 208 0.0 0.0 0.00 0.00 0.00 66 1009.7
20260504184305 71 208 0.0 0.0 0.00 0.00 0.00 66 1009.7
20260504184203 71 208 0.0 0.0 0.00 0.00 0.00 66 1009.7
20260504184007 71 208 0.0 1.0 0.00 0.00 0.00 66 1009.7
20260504183904 71 208 0.0 1.0 0.00 0.00 0.00 66 1009.8
20260504183806 71 208 0.0 1.0 0.00 0.00 0.00 66 1009.8
20260504183704 71 208 0.0 1.0 0.00 0.00 0.00 66 1009.7
20260504183604 71 208 0.0 1.0 0.00 0.00 0.00 66 1009.7
20260504183505 71 208 0.0 1.0 0.00 0.00 0.00 66 1009.7
20260504183406 71 208 0.0 1.0 0.00 0.00 0.00 66 1009.7
20260504183303 71 208 0.0 1.0 0.00 0.00 0.00 66 1009.7
20260504183104 71 208 0.0 1.0 0.00 0.00 0.00 66 1009.6
20260504183015 71 208 0.0 1.0 0.00 0.00 0.00 66 1009.6
20260504182907 71 208 1.0 1.0 0.00 0.00 0.00 66 1009.6
20260504182802 71 208 0.0 1.0 0.00 0.00 0.00 65 1009.5
20260504182705 71 208 0.0 1.0 0.00 0.00 0.00 65 1009.5
20260504182608 71 208 0.0 1.0 0.00 0.00 0.00 65 1009.5
20260504182404 71 208 0.0 2.0 0.00 0.00 0.00 65 1009.4
20260504182304 71 208 0.0 3.0 0.00 0.00 0.00 65 1009.4
20260504182204 71 208 0.0 3.0 0.00 0.00 0.00 65 1009.4
20260504182103 71 208 0.0 3.0 0.00 0.00 0.00 66 1009.3
20260504182008 71 208 0.0 3.0 0.00 0.00 0.00 65 1009.4
20260504181805 71 208 0.0 3.0 0.00 0.00 0.00 65 1009.4
20260504181704 71 263 1.0 3.0 0.00 0.00 0.00 65 1009.4
20260504181605 71 209 1.0 3.0 0.00 0.00 0.00 65 1009.4
20260504181207 71 245 1.0 4.0 0.00 0.00 0.00 65 1009.3
20260504181104 71 232 0.0 4.0 0.00 0.00 0.00 65 1009.3
20260504180903 71 213 1.0 4.0 0.00 0.00 0.00 65 1009.3
20260504180804 71 221 1.0 4.0 0.00 0.00 0.00 65 1009.4
20260504180704 71 211 1.0 4.0 0.00 0.00 0.00 65 1009.3
20260504180605 71 227 2.0 4.0 0.00 0.00 0.00 65 1009.3
20260504180507 71 242 3.0 4.0 0.00 0.00 0.00 65 1009.3
20260504180304 71 256 1.0 3.0 0.00 0.00 0.00 65 1009.2
20260504180205 71 213 1.0 3.0 0.00 0.00 0.00 64 1009.1
20260504180103 71 213 2.0 3.0 0.00 0.00 0.00 64 1009.1
20260504175908 71 196 1.0 3.0 0.00 0.00 0.00 64 1009.0
20260504175807 71 171 1.0 3.0 0.00 0.00 0.00 64 1009.0
20260504175703 71 171 2.0 4.0 0.00 0.00 0.00 64 1008.9
20260504175604 71 171 3.0 4.0 0.00 0.00 0.00 64 1008.9
20260504175506 71 171 2.0 4.0 0.00 0.00 0.00 64 1008.9
20260504175404 71 159 1.0 2.0 0.00 0.00 0.00 64 1008.8
20260504175304 71 163 1.0 2.0 0.00 0.00 0.00 64 1008.8
20260504175203 71 165 0.0 1.0 0.00 0.00 0.00 64 1008.7
20260504175008 71 246 0.0 0.0 0.00 0.00 0.00 64 1008.8
20260504174704 71 246 0.0 1.0 0.00 0.00 0.00 64 1008.7
20260504174604 71 246 0.0 1.0 0.00 0.00 0.00 64 1008.6
20260504174506 71 246 0.0 1.0 0.00 0.00 0.00 64 1008.7
20260504174403 71 246 0.0 1.0 0.00 0.00 0.00 64 1008.6
20260504174303 71 246 0.0 1.0 0.00 0.00 0.00 64 1008.6
20260504174203 71 246 0.0 1.0 0.00 0.00 0.00 64 1008.6
20260504174103 71 246 0.0 1.0 0.00 0.00 0.00 64 1008.6
20260504174007 71 235 0.0 0.0 0.00 0.00 0.00 64 1008.7
20260504173904 71 234 0.0 0.0 0.00 0.00 0.00 64 1008.6
20260504173804 71 234 0.0 0.0 0.00 0.00 0.00 64 1008.6
20260504173704 71 234 0.0 0.0 0.00 0.00 0.00 64 1008.6
20260504173604 71 234 0.0 0.0 0.00 0.00 0.00 64 1008.6
20260504173404 71 234 0.0 0.0 0.00 0.00 0.00 64 1008.5
20260504173204 71 227 0.0 2.0 0.00 0.00 0.00 64 1008.5
20260504173103 71 227 0.0 4.0 0.00 0.00 0.00 64 1008.6
20260504172903 71 355 0.0 4.0 0.00 0.00 0.00 64 1008.6
20260504172805 71 355 0.0 4.0 0.00 0.00 0.00 64 1008.5
20260504172703 72 355 0.0 4.0 0.00 0.00 0.00 64 1008.5
20260504172604 71 355 0.0 4.0 0.00 0.00 0.00 64 1008.6
20260504172505 72 355 0.0 4.0 0.00 0.00 0.00 64 1008.7
20260504172401 72 355 2.0 4.0 0.00 0.00 0.00 64 1008.6
20260504172304 72 360 2.0 4.0 0.00 0.00 0.00 64 1008.7
20260504172203 72 344 1.0 4.0 0.00 0.00 0.00 63 1008.7
20260504172105 72 342 0.0 4.0 0.00 0.00 0.00 63 1008.7
20260504172006 72 300 0.0 5.0 0.00 0.00 0.00 63 1008.6
20260504171905 72 300 0.0 5.0 0.00 0.00 0.00 63 1008.6
20260504171806 72 300 0.0 5.0 0.00 0.00 0.00 63 1008.7
20260504171705 72 288 1.0 5.0 0.00 0.00 0.00 63 1008.7
20260504171604 72 306 2.0 5.0 0.00 0.00 0.00 63 1008.7
20260504171510 72 281 2.0 5.0 0.00 0.00 0.00 63 1008.8
20260504171404 72 313 2.0 5.0 0.00 0.00 0.00 63 1008.8
20260504171303 72 319 3.0 5.0 0.00 0.00 0.00 63 1008.9
20260504171209 72 310 2.0 5.0 0.00 0.00 0.00 63 1008.9
20260504171104 72 304 2.0 4.0 0.00 0.00 0.00 63 1008.8
20260504171006 72 320 3.0 4.0 0.00 0.00 0.00 63 1008.8
20260504170903 72 292 3.0 4.0 0.00 0.00 0.00 63 1008.8
20260504170803 72 295 3.0 4.0 0.00 0.00 0.00 63 1008.9
20260504170702 72 278 2.0 4.0 0.00 0.00 0.00 63 1008.8
20260504170605 72 282 1.0 4.0 0.00 0.00 0.00 63 1008.8
20260504170510 72 282 1.0 4.0 0.00 0.00 0.00 63 1008.8
20260504170404 72 279 1.0 4.0 0.00 0.00 0.00 63 1008.8
20260504170304 72 263 1.0 4.0 0.00 0.00 0.00 63 1008.8
20260504170204 72 256 1.0 4.0 0.00 0.00 0.00 63 1008.9
20260504170104 72 251 2.0 4.0 0.00 0.00 0.00 62 1008.8
20260504160402 71 323 1.0 4.0 0.00 0.00 0.00 64 1008.5
20260504160302 71 340 1.0 4.0 0.00 0.00 0.00 64 1008.5
20260504160202 71 340 0.0 4.0 0.00 0.00 0.00 64 1008.4
20260504151103 74 332 2.0 8.0 0.00 0.00 0.00 57 1008.4
20260504151003 74 24 2.0 9.0 0.00 0.00 0.00 57 1008.4
20260504150903 74 5 2.0 10.0 0.00 0.00 0.00 57 1008.3
20260504150804 74 350 3.0 10.0 0.00 0.00 0.00 57 1008.3
20260504150703 74 344 4.0 10.0 0.00 0.00 0.00 56 1008.3
20260504150602 74 342 4.0 10.0 0.00 0.00 0.00 56 1008.2
20260504150506 74 355 4.0 10.0 0.00 0.00 0.00 56 1008.2
20260504150403 74 13 4.0 10.0 0.00 0.00 0.00 56 1008.2
20260504150308 74 21 5.0 10.0 0.00 0.00 0.00 55 1008.1
20260504150202 74 17 4.0 10.0 0.00 0.00 0.00 55 1008.2
20260504150103 74 55 3.0 7.0 0.00 0.00 0.00 55 1008.1
20260504141302 75 51 2.0 6.0 0.00 0.00 0.00 54 1007.6
20260504141103 75 103 4.0 6.0 0.00 0.00 0.00 54 1007.6
20260504141005 75 42 4.0 6.0 0.00 0.00 0.00 54 1007.6
20260504140908 75 46 4.0 6.0 0.00 0.00 0.00 54 1007.6
20260504140708 75 82 3.0 6.0 0.00 0.00 0.00 54 1007.5
20260504140603 75 44 2.0 5.0 0.00 0.00 0.00 54 1007.6
20260504140506 75 57 3.0 5.0 0.00 0.00 0.00 54 1007.7
20260504140303 75 51 2.0 5.0 0.00 0.00 0.00 55 1007.7
20260504140203 75 30 2.0 5.0 0.00 0.00 0.00 54 1007.6
20260504140104 75 28 2.0 5.0 0.00 0.00 0.00 54 1007.6
20260504130802 74 42 9.0 15.0 0.00 0.00 0.00 58 1008.2
20260504130702 74 31 9.0 16.0 0.00 0.00 0.00 58 1008.3
20260504130603 74 34 9.0 16.0 0.00 0.00 0.00 57 1008.3
20260504130504 74 351 9.0 17.0 0.00 0.00 0.00 57 1008.3
20260504130405 74 16 10.0 17.0 0.00 0.00 0.00 57 1008.3
20260504130302 74 5 9.0 17.0 0.00 0.00 0.00 57 1008.1
20260504120301 76 341 10.0 20.0 0.00 0.00 0.00 51 1009.2
20260504100505 86 40 4.0 8.0 0.00 0.00 0.00 46 1008.1
20260504100404 86 26 3.0 8.0 0.00 0.00 0.00 46 1008.3
20260504100302 86 27 4.0 8.0 0.00 0.00 0.00 46 1008.2
20260504100202 86 55 4.0 8.0 0.00 0.00 0.00 45 1008.2
20260504082006 86 148 9.0 18.0 0.00 0.00 0.00 50 1007.9
20260504081804 86 127 6.0 18.0 0.00 0.00 0.00 50 1008.0
20260504081703 85 110 6.0 18.0 0.00 0.00 0.00 50 1008.0
20260504081605 85 79 8.0 18.0 0.00 0.00 0.00 50 1008.0
20260504081504 85 116 9.0 18.0 0.00 0.00 0.00 50 1007.9
20260504081402 85 77 11.0 18.0 0.00 0.00 0.00 50 1007.8
20260504081302 85 71 11.0 18.0 0.00 0.00 0.00 50 1008.0
20260504081202 85 114 10.0 18.0 0.00 0.00 0.00 49 1008.0
20260504081006 85 145 11.0 21.0 0.00 0.00 0.00 49 1007.9
20260504080903 85 103 13.0 21.0 0.00 0.00 0.00 49 1007.9
20260504080803 85 136 11.0 21.0 0.00 0.00 0.00 49 1008.1
20260504080702 85 142 11.0 21.0 0.00 0.00 0.00 48 1008.0
20260504080603 85 140 11.0 21.0 0.00 0.00 0.00 48 1008.0
20260504080404 85 145 11.0 21.0 0.00 0.00 0.00 48 1008.1
20260504080302 85 142 13.0 21.0 0.00 0.00 0.00 49 1008.1
20260504080203 85 117 12.0 21.0 0.00 0.00 0.00 49 1008.2
20260504070303 84 128 13.0 20.0 0.00 0.00 0.00 50 1009.2
20260504070204 84 109 14.0 20.0 0.00 0.00 0.00 50 1009.2
20260504060203 84 123 13.0 24.0 0.00 0.00 0.00 46 1009.5
20260504050704 83 106 6.0 16.0 0.00 0.00 0.00 51 1009.6
20260504050603 83 159 7.0 16.0 0.00 0.00 0.00 52 1009.5
20260504050507 83 183 8.0 18.0 0.00 0.00 0.00 52 1009.6
20260504050404 83 131 8.0 18.0 0.00 0.00 0.00 52 1009.5
20260504050303 83 158 7.0 18.0 0.00 0.00 0.00 52 1009.5
20260504050203 83 167 8.0 18.0 0.00 0.00 0.00 53 1009.5
20260504050103 83 165 11.0 18.0 0.00 0.00 0.00 52 1009.5
20260504050009 83 168 11.0 18.0 0.00 0.00 0.00 52 1009.5
20260504045901 83 129 11.0 18.0 0.00 0.00 0.00 52 1009.5
20260504045801 83 89 12.0 18.0 0.00 0.00 0.00 52 1009.4
20260504045700 83 166 11.0 18.0 0.00 0.00 0.00 52 1009.4
20260504045601 83 150 8.0 17.0 0.00 0.00 0.00 52 1009.4
20260504045505 83 155 7.0 17.0 0.00 0.00 0.00 53 1009.4
20260504045403 83 123 7.0 17.0 0.00 0.00 0.00 53 1009.3
20260504045304 83 146 9.0 17.0 0.00 0.00 0.00 52 1009.4
20260504045201 83 159 10.0 17.0 0.00 0.00 0.00 52 1009.5
20260504045102 83 165 11.0 17.0 0.00 0.00 0.00 52 1009.5
20260504045006 83 177 12.0 15.0 0.00 0.00 0.00 52 1009.5
20260504044903 83 159 10.0 15.0 0.00 0.00 0.00 53 1009.5
20260504044504 82 201 6.0 16.0 0.00 0.00 0.00 55 1009.4
20260504044402 82 174 8.0 17.0 0.00 0.00 0.00 55 1009.4
20260504044304 82 148 9.0 17.0 0.00 0.00 0.00 54 1009.3
20260504044202 82 184 9.0 17.0 0.00 0.00 0.00 54 1009.2
20260504044103 82 199 8.0 17.0 0.00 0.00 0.00 53 1009.3
20260504044006 82 173 8.0 17.0 0.00 0.00 0.00 54 1009.3
20260504043903 82 203 11.0 17.0 0.00 0.00 0.00 54 1009.3
20260504043703 82 196 10.0 17.0 0.00 0.00 0.00 54 1009.2
20260504043602 82 136 9.0 17.0 0.00 0.00 0.00 55 1009.3
20260504043504 82 201 5.0 14.0 0.00 0.00 0.00 55 1009.1
20260504043403 82 188 6.0 14.0 0.00 0.00 0.00 55 1009.2
20260504043300 82 211 9.0 14.0 0.00 0.00 0.00 55 1009.2
20260504043202 82 160 10.0 14.0 0.00 0.00 0.00 54 1009.4
20260504043103 82 171 9.0 16.0 0.00 0.00 0.00 55 1009.3
20260504042904 82 190 10.0 16.0 0.00 0.00 0.00 54 1009.2
20260504042802 82 167 11.0 16.0 0.00 0.00 0.00 54 1009.2
20260504042703 82 159 11.0 16.0 0.00 0.00 0.00 54 1009.2
20260504042505 82 192 11.0 16.0 0.00 0.00 0.00 54 1009.2
20260504042403 82 194 9.0 16.0 0.00 0.00 0.00 55 1009.2
20260504042201 82 154 7.0 15.0 0.00 0.00 0.00 55 1009.1
20260504042102 82 156 9.0 15.0 0.00 0.00 0.00 55 1009.2
20260504042005 82 160 9.0 15.0 0.00 0.00 0.00 55 1009.1
20260504041802 82 127 13.0 19.0 0.00 0.00 0.00 55 1009.1
20260504041703 82 184 12.0 16.0 0.00 0.00 0.00 55 1009.3
20260504041603 82 178 12.0 17.0 0.00 0.00 0.00 55 1009.1
20260504041504 82 160 11.0 15.0 0.00 0.00 0.00 55 1009.2
20260504041303 82 163 11.0 14.0 0.00 0.00 0.00 56 1009.1
20260504041202 82 187 10.0 14.0 0.00 0.00 0.00 56 1009.1
20260504041006 82 186 9.0 15.0 0.00 0.00 0.00 56 1009.1
20260504040902 82 198 9.0 13.0 0.00 0.00 0.00 57 1009.0
20260504040802 82 190 7.0 11.0 0.00 0.00 0.00 57 1009.1
20260504040702 82 169 6.0 12.0 0.00 0.00 0.00 58 1009.0
20260504040602 81 178 8.0 12.0 0.00 0.00 0.00 58 1008.9
20260504040504 81 182 8.0 12.0 0.00 0.00 0.00 58 1009.1
20260504040301 81 175 8.0 12.0 0.00 0.00 0.00 59 1009.0
20260504040202 81 132 9.0 12.0 0.00 0.00 0.00 59 1009.0
20260504040103 81 155 9.0 12.0 0.00 0.00 0.00 58 1009.0
20260504035903 81 146 7.0 12.0 0.00 0.00 0.00 60 1008.9
20260504035758 81 193 5.0 12.0 0.00 0.00 0.00 60 1008.9
20260504035702 81 168 5.0 12.0 0.00 0.00 0.00 60 1009.0
20260504035503 81 166 6.0 13.0 0.00 0.00 0.00 60 1008.9
20260504035403 81 190 7.0 13.0 0.00 0.00 0.00 60 1008.9
20260504035304 81 177 6.0 13.0 0.00 0.00 0.00 61 1008.8
20260504035201 81 157 7.0 13.0 0.00 0.00 0.00 61 1008.8
20260504035103 81 159 6.0 13.0 0.00 0.00 0.00 61 1008.8
20260504035007 81 148 6.0 12.0 0.00 0.00 0.00 61 1008.8
20260504034901 81 186 6.0 12.0 0.00 0.00 0.00 62 1008.7
20260504034802 81 163 6.0 12.0 0.00 0.00 0.00 62 1008.7
20260504034702 81 88 6.0 12.0 0.00 0.00 0.00 61 1008.6
20260504034600 81 151 6.0 12.0 0.00 0.00 0.00 61 1008.7
20260504034505 81 125 8.0 12.0 0.00 0.00 0.00 61 1008.6
20260504034402 81 138 7.0 12.0 0.00 0.00 0.00 61 1008.5
20260504034301 81 117 7.0 11.0 0.00 0.00 0.00 61 1008.6
20260504034202 81 128 7.0 11.0 0.00 0.00 0.00 61 1008.6
20260504034059 81 144 6.0 9.0 0.00 0.00 0.00 61 1008.6
20260504033903 81 188 6.0 13.0 0.00 0.00 0.00 61 1008.5
20260504033801 81 136 6.0 13.0 0.00 0.00 0.00 61 1008.5
20260504033702 81 174 6.0 13.0 0.00 0.00 0.00 61 1008.5
20260504033504 81 178 5.0 13.0 0.00 0.00 0.00 61 1008.5
20260504033203 81 168 9.0 13.0 0.00 0.00 0.00 60 1008.7
20260504033103 81 171 8.0 13.0 0.00 0.00 0.00 60 1008.5
20260504033004 81 184 7.0 15.0 0.00 0.00 0.00 59 1008.5
20260504032902 81 184 9.0 15.0 0.00 0.00 0.00 60 1008.5
20260504032703 81 183 7.0 13.0 0.00 0.00 0.00 60 1008.5
20260504032602 81 169 6.0 12.0 0.00 0.00 0.00 60 1008.4
20260504032505 81 126 6.0 12.0 0.00 0.00 0.00 60 1008.4
20260504032403 81 161 6.0 12.0 0.00 0.00 0.00 60 1008.4
20260504032203 81 161 6.0 12.0 0.00 0.00 0.00 60 1008.4
20260504032102 80 188 6.0 12.0 0.00 0.00 0.00 59 1008.2
20260504032006 80 173 5.0 12.0 0.00 0.00 0.00 59 1008.2
20260504031803 80 170 5.0 9.0 0.00 0.00 0.00 59 1008.1
20260504031703 80 168 5.0 10.0 0.00 0.00 0.00 60 1008.1
20260504031600 80 202 5.0 8.0 0.00 0.00 0.00 60 1008.0
20260504031504 80 211 4.0 7.0 0.00 0.00 0.00 60 1008.1
20260504031403 80 189 3.0 6.0 0.00 0.00 0.00 61 1008.0
20260504031302 80 162 2.0 5.0 0.00 0.00 0.00 61 1008.0
20260504031202 80 148 1.0 6.0 0.00 0.00 0.00 62 1008.0
20260504031103 80 198 2.0 6.0 0.00 0.00 0.00 62 1007.9
20260504030902 80 182 3.0 10.0 0.00 0.00 0.00 61 1007.9
20260504030805 80 211 2.0 10.0 0.00 0.00 0.00 62 1007.9
20260504030703 80 204 2.0 10.0 0.00 0.00 0.00 62 1007.8
20260504030605 80 206 2.0 10.0 0.00 0.00 0.00 61 1007.8
20260504030504 80 201 2.0 10.0 0.00 0.00 0.00 61 1007.7
20260504030203 80 173 6.0 10.0 0.00 0.00 0.00 61 1007.7
20260504030007 79 140 2.0 7.0 0.00 0.00 0.00 63 1007.7
20260504025902 79 169 2.0 7.0 0.00 0.00 0.00 62 1007.7
20260504025803 79 219 3.0 7.0 0.00 0.00 0.00 63 1007.6
20260504025703 79 158 3.0 7.0 0.00 0.00 0.00 63 1007.7
20260504025603 79 188 4.0 7.0 0.00 0.00 0.00 63 1007.7
20260504025505 79 149 3.0 7.0 0.00 0.00 0.00 64 1007.6
20260504025403 79 173 3.0 5.0 0.00 0.00 0.00 64 1007.6
20260504025304 79 145 2.0 7.0 0.00 0.00 0.00 64 1007.5
20260504025200 79 180 2.0 7.0 0.00 0.00 0.00 64 1007.5
20260504025102 79 164 1.0 7.0 0.00 0.00 0.00 64 1007.5
20260504024902 79 152 3.0 7.0 0.00 0.00 0.00 64 1007.5
20260504024803 79 171 2.0 7.0 0.00 0.00 0.00 64 1007.4
20260504024602 79 147 4.0 7.0 0.00 0.00 0.00 64 1007.3
20260504024505 79 126 3.0 7.0 0.00 0.00 0.00 65 1007.4
20260504024402 78 113 3.0 8.0 0.00 0.00 0.00 65 1007.4
20260504024202 78 137 5.0 8.0 0.00 0.00 0.00 65 1007.5
20260504024006 78 134 3.0 8.0 0.00 0.00 0.00 65 1007.4
20260504023902 78 130 3.0 9.0 0.00 0.00 0.00 65 1007.4
20260504023803 78 145 5.0 9.0 0.00 0.00 0.00 65 1007.3
20260504023702 78 134 6.0 9.0 0.00 0.00 0.00 65 1007.4
20260504023506 78 152 4.0 9.0 0.00 0.00 0.00 66 1007.2
20260504023303 78 173 4.0 9.0 0.00 0.00 0.00 66 1007.2
20260504023200 78 128 5.0 9.0 0.00 0.00 0.00 66 1007.2
20260504022902 78 71 4.0 7.0 0.00 0.00 0.00 67 1007.2
20260504022803 78 128 4.0 9.0 0.00 0.00 0.00 67 1007.1
20260504022703 78 124 3.0 9.0 0.00 0.00 0.00 68 1007.1
20260504022602 77 124 2.0 9.0 0.00 0.00 0.00 68 1007.0
20260504022504 77 135 2.0 9.0 0.00 0.00 0.00 68 1007.0
20260504022403 77 141 2.0 9.0 0.00 0.00 0.00 68 1007.1
20260504022304 77 117 2.0 9.0 0.00 0.00 0.00 68 1007.0
20260504022202 77 148 4.0 10.0 0.00 0.00 0.00 68 1007.1
20260504022103 77 112 6.0 10.0 0.00 0.00 0.00 68 1007.1
20260504022008 77 148 7.0 12.0 0.00 0.00 0.00 68 1007.1
20260504021802 77 142 4.0 12.0 0.00 0.00 0.00 69 1007.1
20260504021703 77 189 5.0 12.0 0.00 0.00 0.00 69 1007.1
20260504021601 77 134 5.0 12.0 0.00 0.00 0.00 69 1007.1
20260504021503 77 128 5.0 12.0 0.00 0.00 0.00 69 1007.1
20260504021403 77 106 7.0 12.0 0.00 0.00 0.00 69 1007.1
20260504021302 77 155 7.0 12.0 0.00 0.00 0.00 70 1007.2
20260504021159 77 138 5.0 10.0 0.00 0.00 0.00 71 1007.1
20260504021103 77 136 4.0 7.0 0.00 0.00 0.00 71 1007.1
20260504021006 77 105 3.0 7.0 0.00 0.00 0.00 71 1007.0
20260504020901 77 84 2.0 6.0 0.00 0.00 0.00 72 1006.9
20260504020703 77 92 3.0 6.0 0.00 0.00 0.00 72 1006.8
20260504020505 77 113 2.0 6.0 0.00 0.00 0.00 72 1006.8
20260504020403 77 41 2.0 6.0 0.00 0.00 0.00 72 1006.8
20260504020009 76 82 2.0 4.0 0.00 0.00 0.00 72 1006.7
20260504015902 76 94 1.0 3.0 0.00 0.00 0.00 73 1006.7
20260504015702 76 84 1.0 3.0 0.00 0.00 0.00 73 1006.7
20260504015559 76 96 0.0 3.0 0.00 0.00 0.00 74 1006.6
20260504015506 76 88 1.0 3.0 0.00 0.00 0.00 74 1006.7
20260504015400 76 61 1.0 3.0 0.00 0.00 0.00 74 1006.6
20260504015304 76 161 1.0 3.0 0.00 0.00 0.00 74 1006.7
20260504015202 76 158 2.0 3.0 0.00 0.00 0.00 74 1006.7
20260504015102 75 156 2.0 3.0 0.00 0.00 0.00 74 1006.6
20260504015003 75 111 1.0 4.0 0.00 0.00 0.00 74 1006.6
20260504014903 75 282 0.0 4.0 0.00 0.00 0.00 74 1006.6
20260504014806 75 144 0.0 4.0 0.00 0.00 0.00 74 1006.6
20260504014702 75 144 0.0 4.0 0.00 0.00 0.00 74 1006.5
20260504014606 75 123 0.0 4.0 0.00 0.00 0.00 75 1006.6
20260504014504 75 134 0.0 4.0 0.00 0.00 0.00 75 1006.6
20260504014402 75 92 0.0 4.0 0.00 0.00 0.00 75 1006.6
20260504014202 75 101 2.0 4.0 0.00 0.00 0.00 75 1006.4
20260504014103 75 116 2.0 5.0 0.00 0.00 0.00 75 1006.4
20260504014006 75 125 2.0 5.0 0.00 0.00 0.00 74 1006.4
20260504013901 75 150 2.0 5.0 0.00 0.00 0.00 74 1006.4
20260504013802 75 184 2.0 5.0 0.00 0.00 0.00 74 1006.3
20260504013601 75 186 3.0 5.0 0.00 0.00 0.00 75 1006.3
20260504013505 75 152 2.0 5.0 0.00 0.00 0.00 75 1006.4
20260504013402 75 208 3.0 5.0 0.00 0.00 0.00 75 1006.3
20260504013302 75 134 3.0 6.0 0.00 0.00 0.00 75 1006.4
20260504013202 75 154 3.0 6.0 0.00 0.00 0.00 75 1006.3
20260504013103 75 100 2.0 6.0 0.00 0.00 0.00 75 1006.3
20260504013005 75 113 2.0 4.0 0.00 0.00 0.00 75 1006.3
20260504012902 75 64 2.0 4.0 0.00 0.00 0.00 75 1006.3
20260504012800 75 77 1.0 3.0 0.00 0.00 0.00 75 1006.3
20260504012701 75 106 1.0 3.0 0.00 0.00 0.00 75 1006.3
20260504012602 74 59 0.0 4.0 0.00 0.00 0.00 75 1006.3
20260504012402 74 78 0.0 4.0 0.00 0.00 0.00 75 1006.3
20260504012304 74 101 1.0 4.0 0.00 0.00 0.00 75 1006.2
20260504012202 74 122 2.0 4.0 0.00 0.00 0.00 75 1006.3
20260504012103 74 86 2.0 4.0 0.00 0.00 0.00 75 1006.2
20260504012006 74 112 2.0 4.0 0.00 0.00 0.00 75 1006.2
20260504011903 74 98 2.0 4.0 0.00 0.00 0.00 75 1006.1
20260504011800 74 78 2.0 4.0 0.00 0.00 0.00 75 1006.1
20260504011701 74 73 2.0 4.0 0.00 0.00 0.00 76 1006.2
20260504011600 74 102 2.0 4.0 0.00 0.00 0.00 76 1006.1
20260504011402 74 128 0.0 2.0 0.00 0.00 0.00 76 1006.1
20260504011302 74 78 0.0 1.0 0.00 0.00 0.00 76 1006.0
20260504011204 74 78 0.0 2.0 0.00 0.00 0.00 76 1006.1
20260504011102 74 78 0.0 3.0 0.00 0.00 0.00 76 1006.0
20260504011006 74 127 0.0 4.0 0.00 0.00 0.00 76 1006.1
20260504010903 74 124 0.0 4.0 0.00 0.00 0.00 76 1005.9
20260504010802 74 124 0.0 4.0 0.00 0.00 0.00 76 1006.0
20260504010702 74 90 0.0 4.0 0.00 0.00 0.00 76 1006.0
20260504010602 74 105 0.0 4.0 0.00 0.00 0.00 76 1005.9
20260504010505 74 106 1.0 4.0 0.00 0.00 0.00 76 1005.9
20260504010402 74 121 2.0 4.0 0.00 0.00 0.00 76 1005.9
20260504010303 74 141 3.0 4.0 0.00 0.00 0.00 76 1005.9
20260504010203 73 142 3.0 4.0 0.00 0.00 0.00 76 1005.9
20260504005901 73 27 0.0 4.0 0.00 0.00 0.00 76 1005.8
20260504005802 73 108 0.0 4.0 0.00 0.00 0.00 76 1005.9
20260504005603 73 59 0.0 4.0 0.00 0.00 0.00 77 1005.8
20260504005503 73 74 1.0 4.0 0.00 0.00 0.00 77 1005.8
20260504005401 73 79 2.0 4.0 0.00 0.00 0.00 77 1005.8
20260504005304 73 95 2.0 4.0 0.00 0.00 0.00 77 1005.8
20260504005202 73 117 3.0 4.0 0.00 0.00 0.00 77 1005.8
20260504005004 73 108 1.0 3.0 0.00 0.00 0.00 77 1005.7
20260504004901 73 87 1.0 3.0 0.00 0.00 0.00 77 1005.7
20260504004801 73 88 1.0 3.0 0.00 0.00 0.00 77 1005.7
20260504004700 73 76 1.0 3.0 0.00 0.00 0.00 77 1005.7
20260504004602 73 155 1.0 3.0 0.00 0.00 0.00 77 1005.7
20260504004403 73 147 2.0 6.0 0.00 0.00 0.00 77 1005.7
20260504004204 73 30 1.0 6.0 0.00 0.00 0.00 77 1005.5
20260504004004 73 81 1.0 6.0 0.00 0.00 0.00 77 1005.4
20260504003901 73 62 1.0 6.0 0.00 0.00 0.00 77 1005.5
20260504003800 73 142 2.0 6.0 0.00 0.00 0.00 77 1005.5
20260504003702 73 124 3.0 6.0 0.00 0.00 0.00 77 1005.5
20260504003602 73 82 2.0 4.0 0.00 0.00 0.00 77 1005.4
20260504003402 73 59 1.0 3.0 0.00 0.00 0.00 76 1005.3
20260504003102 73 61 1.0 2.0 0.00 0.00 0.00 76 1005.2
20260504003007 73 169 1.0 2.0 0.00 0.00 0.00 76 1005.2
20260504002903 73 101 1.0 4.0 0.00 0.00 0.00 76 1005.2
20260504002802 73 155 0.0 4.0 0.00 0.00 0.00 76 1005.2
20260504002702 73 317 0.0 4.0 0.00 0.00 0.00 76 1005.1
20260504002601 73 317 0.0 4.0 0.00 0.00 0.00 76 1005.1
20260504002505 73 311 0.0 4.0 0.00 0.00 0.00 76 1005.1
20260504002402 73 319 0.0 4.0 0.00 0.00 0.00 76 1005.1
20260504002303 73 319 1.0 4.0 0.00 0.00 0.00 76 1005.0
20260504002104 73 360 2.0 4.0 0.00 0.00 0.00 75 1004.9
20260504002003 73 360 3.0 4.0 0.00 0.00 0.00 75 1005.0
20260504001902 73 360 3.0 4.0 0.00 0.00 0.00 75 1004.9
20260504001803 74 360 2.0 4.0 0.00 0.00 0.00 75 1005.0
20260504001702 74 321 1.0 4.0 0.00 0.00 0.00 75 1005.0
20260504001600 74 321 1.0 4.0 0.00 0.00 0.00 75 1005.0
20260504001505 74 331 1.0 4.0 0.00 0.00 0.00 75 1005.0
20260504001403 74 337 1.0 4.0 0.00 0.00 0.00 75 1004.9
20260504001302 74 337 1.0 4.0 0.00 0.00 0.00 75 1005.0
20260504001104 74 19 2.0 4.0 0.00 0.00 0.00 74 1004.9
20260504001007 74 15 3.0 4.0 0.00 0.00 0.00 74 1004.9
20260504000903 74 20 2.0 4.0 0.00 0.00 0.00 74 1004.8
20260504000802 74 17 1.0 3.0 0.00 0.00 0.00 74 1004.8
20260504000701 74 12 2.0 3.0 0.00 0.00 0.00 74 1004.6
20260504000602 74 348 2.0 3.0 0.00 0.00 0.00 74 1004.7
20260504000505 75 355 1.0 2.0 0.00 0.00 0.00 74 1004.6
20260504000404 75 349 1.0 2.0 0.00 0.00 0.00 74 1004.6
20260504000303 75 349 0.0 1.0 0.00 0.00 0.00 74 1004.6
20260503235901 75 317 0.0 1.0 0.00 0.09 0.00 73 1004.3
20260503235802 75 317 0.0 1.0 0.00 0.09 0.00 73 1004.3
20260503235701 75 317 0.0 1.0 0.00 0.09 0.00 73 1004.3
20260503235601 75 317 0.0 1.0 0.00 0.09 0.00 73 1004.2
20260503235503 75 317 0.0 1.0 0.00 0.09 0.00 73 1004.2
20260503235401 75 194 0.0 0.0 0.00 0.09 0.00 73 1004.2
20260503235301 75 194 0.0 1.0 0.00 0.09 0.00 73 1004.1
20260503235201 75 194 0.0 1.0 0.00 0.09 0.00 73 1004.2
20260503235058 75 194 0.0 1.0 0.00 0.09 0.00 73 1004.1
20260503235006 75 194 0.0 1.0 0.00 0.09 0.00 73 1004.2
20260503234901 75 194 0.0 1.0 0.00 0.09 0.00 73 1004.1
20260503234800 75 194 0.0 1.0 0.00 0.09 0.00 73 1004.0